Location: ????
(55.5675°N, 37.6272°E)
Time: 11:21:19
(UTC+00:00)

ARIANE 6 FM1 Upper Stage - Pass Details

Date: 14 April 2026
Orbit: 526 x 602 km, 62.0° (Epoch: 10 May)

Event Time Altitude Azimuth Distance (km) Brightness Sun altitude
Rises 19:59:42 0° 285° (WNW) 2,701 6.7 -22.1°
Reaches altitude 10° 20:02:06 10° 295° (WNW) 1,799 5.9 -22.3°
Maximum altitude 20:05:45 32° 0° (N) 932 4.3 -22.5°
Drops below altitude 10° 20:09:22 10° 65° (ENE) 1,779 5.2 -22.7°
Enters shadow 20:10:24 - 71° (ENE) 2,156 5.6 -22.7°
